Ottumwa, IA

12:04 AM CDT on March 27, 2017 (GMT -0500)
Ottumwa Industrial

Weather History for KOTM - December, 2014

Change the Weather History Date:

Friday, December 19, 2014

  Actual Average Record
Temperature  
Mean Temperature 29 °F 25 °F  
Max Temperature 31 °F 33 °F 59 °F (1941)
Min Temperature 26 °F 16 °F -18 °F (1983)
Degree Days  
Heating Degree Days 36 40  
Month to date heating degree days 633 712  
Since 1 July heating degree days 2141 2010  
Cooling Degree Days 0 0  
Month to date cooling degree days 0 0  
Year to date cooling degree days 801 938  
Moisture  
Dew Point 24 °F    
Average Humidity 82    
Maximum Humidity 85    
Minimum Humidity 78    
Precipitation  
Precipitation 0.00 in 0.04 in 1.12 in (1952)
Month to date precipitation 0.61 0.94  
Year to date precipitation 42.39 36.64  
Sea Level Pressure  
Sea Level Pressure 30.28 in    
Wind  
Wind Speed 6 mph (SE)    
Max Wind Speed 9 mph    
Max Gust Speed 13 mph    
Visibility 7 miles    
Events      
T = Trace of Precipitation, MM = Missing Value Source: NWS Daily Summary

Daily Weather History Graph

Daily Weather History Graph

Search for Another Location

Airport or City:

Trip Planner

Search our weather history database for the weather conditions in past years. The results will help you decide how hot, cold, wet, or windy it might be!

Date:

Astronomy

Dec. 19, 2014 Rise Set
Actual Time 7:30 AM CST 4:43 PM CST
Civil Twilight 6:59 AM CST 5:14 PM CST
Nautical Twilight 6:24 AM CST 5:49 PM CST
Astronomical Twilight 5:51 AM CST 6:22 PM CST
Moon 4:44 AM CST (12/19) 3:07 PM CST (12/19)
Length of Visible Light 10h 15m
Length of Day
9h 12m
Waning Crescent, 7% of the Moon is Illuminated
Dec 19
Waning Crescent
Dec 21
New
Dec 28
First Quarter
Jan 4
Full
Jan 13
Last Quarter

Hourly Weather History & Observations

Time (CST) Temp. Windchill Dew Point Humidity Pressure Visibility Wind Dir Wind Speed Gust Speed Precip Events Conditions
12:53 AM 26.1 °F - 21.9 °F 84% 30.32 in 8.0 mi Calm Calm - N/A   Overcast
1:53 AM 27.0 °F - 21.9 °F 81% 30.32 in 8.0 mi Calm Calm - N/A   Overcast
2:53 AM 27.0 °F 21.6 °F 21.9 °F 81% 30.31 in 8.0 mi NE 4.6 mph - N/A   Overcast
3:53 AM 27.0 °F 23.0 °F 21.9 °F 81% 30.31 in 8.0 mi ENE 3.5 mph - N/A   Overcast
4:40 AM 27.0 °F 23.0 °F 23.0 °F 85% 30.26 in 8.0 mi ENE 3.5 mph - N/A   Overcast
4:53 AM 26.1 °F 21.9 °F 23.0 °F 88% 30.30 in 8.0 mi East 3.5 mph - N/A   Overcast
5:44 AM 27.0 °F 21.6 °F 23.0 °F 85% 30.27 in 8.0 mi ESE 4.6 mph - N/A   Overcast
5:53 AM 27.0 °F 21.6 °F 23.0 °F 85% 30.31 in 8.0 mi ESE 4.6 mph - N/A   Overcast
6:53 AM 27.0 °F 20.5 °F 23.0 °F 85% 30.30 in 7.0 mi SE 5.8 mph - N/A   Overcast
7:53 AM 27.0 °F 21.6 °F 23.0 °F 85% 30.32 in 6.0 mi ESE 4.6 mph - N/A   Overcast
8:53 AM 27.0 °F 19.5 °F 23.0 °F 85% 30.33 in 6.0 mi ESE 6.9 mph - N/A   Overcast
9:40 AM 28.0 °F 22.8 °F 24.1 °F 85% 30.30 in 6.0 mi SE 4.6 mph - N/A   Overcast
9:53 AM 28.0 °F 21.7 °F 24.1 °F 85% 30.34 in 6.0 mi SSE 5.8 mph - N/A   Overcast
10:53 AM 28.9 °F 22.8 °F 24.1 °F 82% 30.32 in 6.0 mi ESE 5.8 mph - N/A   Haze
11:53 AM 30.0 °F 25.2 °F 24.1 °F 79% 30.30 in 6.0 mi ESE 4.6 mph - N/A   Haze
12:06 PM 30.0 °F 25.2 °F 24.1 °F 79% 30.25 in 7.0 mi SE 4.6 mph - N/A   Overcast
12:53 PM 30.0 °F 23.2 °F 25.0 °F 82% 30.28 in 7.0 mi SE 6.9 mph - N/A   Overcast
1:26 PM 30.0 °F 24.1 °F 24.1 °F 79% 30.25 in 8.0 mi SE 5.8 mph - N/A   Overcast
1:40 PM 30.0 °F 24.1 °F 24.1 °F 79% 30.25 in 7.0 mi SE 5.8 mph - N/A   Overcast
1:53 PM 30.0 °F 25.2 °F 24.1 °F 79% 30.29 in 7.0 mi South 4.6 mph - N/A   Overcast
2:53 PM 30.9 °F 23.5 °F 25.0 °F 79% 30.29 in 7.0 mi SSE 8.1 mph - N/A   Overcast
3:53 PM 30.9 °F 24.3 °F 25.0 °F 79% 30.27 in 8.0 mi SE 6.9 mph - N/A   Overcast
4:53 PM 30.0 °F 22.4 °F 25.0 °F 82% 30.27 in 7.0 mi ESE 8.1 mph - N/A   Overcast
5:53 PM 30.0 °F 23.2 °F 25.0 °F 82% 30.26 in 7.0 mi ESE 6.9 mph - N/A   Overcast
6:53 PM 30.0 °F 23.2 °F 25.0 °F 82% 30.26 in 7.0 mi ESE 6.9 mph - N/A   Overcast
7:53 PM 30.0 °F 23.2 °F 25.0 °F 82% 30.26 in 8.0 mi SSE 6.9 mph - N/A   Overcast
8:24 PM 30.0 °F 24.1 °F 26.1 °F 85% 30.22 in 7.0 mi SSE 5.8 mph - N/A   Overcast
8:53 PM 30.0 °F 23.2 °F 25.0 °F 82% 30.26 in 8.0 mi SSE 6.9 mph - N/A   Overcast
9:53 PM 30.0 °F 22.4 °F 25.0 °F 82% 30.26 in 8.0 mi SSE 8.1 mph - N/A   Overcast
10:53 PM 30.0 °F 21.7 °F 25.0 °F 82% 30.25 in 7.0 mi SSE 9.2 mph - N/A   Overcast
11:24 PM 30.0 °F 24.1 °F 26.1 °F 85% 30.22 in 7.0 mi SSE 5.8 mph - N/A   Overcast
11:40 PM 30.0 °F 23.2 °F 26.1 °F 85% 30.22 in 8.0 mi SSE 6.9 mph - N/A   Overcast
11:53 PM 30.0 °F 23.2 °F 26.1 °F 85% 30.25 in 8.0 mi SSE 6.9 mph - N/A   Overcast